EW3230 Weather Reports


Display with metric or nautical units.
time (UTC)temp
F
wind
direction
speed
MPH
gust
MPH
rain 1hr
in
rain 24hr
in
rain mn
in
humidity
%
barometer
mb
20181017144648 54 232 1.0 6.0 0.00 0.00 0.00 67 1011.9
20181017143649 53 257 1.0 4.0 0.00 0.00 0.00 69 1012.0
20181017142649 52 235 1.0 3.0 0.00 0.00 0.00 71 1012.2
20181017141649 52 167 1.0 3.0 0.00 0.00 0.00 72 1012.5
20181017140649 51 205 1.0 6.0 0.00 0.00 0.00 75 1012.8
20181017135649 51 203 1.0 5.0 0.00 0.00 0.00 75 1013.1
20181017134648 50 232 1.0 6.0 0.00 0.00 0.00 78 1013.0
20181017133648 49 207 1.0 3.0 0.00 0.00 0.00 80 1012.8
20181017132649 48 187 0.0 2.0 0.00 0.00 0.00 83 1013.0
20181017131649 47 215 0.0 3.0 0.00 0.00 0.00 85 1013.1
20181017130649 46 250 0.0 2.0 0.00 0.00 0.00 90 1013.1
20181017125649 45 190 0.0 1.0 0.00 0.00 0.00 92 1013.0
20181017124649 43 250 0.0 1.0 0.00 0.00 0.00 95 1013.1
20181017123649 42 250 0.0 1.0 0.00 0.00 0.00 97 1013.2
20181017122648 40 250 0.0 0.0 0.00 0.00 0.00 97 1013.2
20181017121649 40 250 0.0 0.0 0.00 0.00 0.00 97 1013.5
20181017120649 39 250 0.0 0.0 0.00 0.00 0.00 97 1013.7
20181017115649 39 250 0.0 0.0 0.00 0.00 0.00 97 1013.7
20181017114649 39 250 0.0 0.0 0.00 0.00 0.00 97 1013.8
20181017113649 38 250 0.0 0.0 0.00 0.00 0.00 96 1013.7
20181017112648 38 250 0.0 0.0 0.00 0.00 0.00 96 1013.7
20181017111649 38 250 0.0 0.0 0.00 0.00 0.00 96 1013.5
20181017110649 37 250 0.0 0.0 0.00 0.00 0.00 96 1013.8
20181017105649 37 250 0.0 0.0 0.00 0.00 0.00 96 1013.8
20181017104649 37 250 0.0 0.0 0.00 0.00 0.00 96 1014.1
20181017103648 37 250 0.0 0.0 0.00 0.00 0.00 96 1014.1
20181017102649 38 250 0.0 0.0 0.00 0.00 0.00 96 1014.3
20181017101649 38 250 0.0 0.0 0.00 0.00 0.00 96 1014.3
20181017100649 38 250 0.0 0.0 0.00 0.00 0.00 95 1014.3
20181017095649 38 250 0.0 0.0 0.00 0.00 0.00 95 1014.6
20181017094648 38 250 0.0 0.0 0.00 0.00 0.00 96 1014.9
20181017093649 38 250 0.0 0.0 0.00 0.00 0.00 95 1014.9
20181017092649 38 250 0.0 0.0 0.00 0.00 0.00 95 1015.0
20181017091649 38 250 0.0 0.0 0.00 0.00 0.00 96 1015.1
20181017090649 38 250 0.0 0.0 0.00 0.00 0.00 95 1015.2
20181017085648 38 250 0.0 0.0 0.00 0.00 0.00 95 1015.4
20181017084649 38 250 0.0 0.0 0.00 0.00 0.00 95 1015.3
20181017083649 38 250 0.0 0.0 0.00 0.00 0.00 95 1015.3
20181017082649 38 250 0.0 0.0 0.00 0.00 0.00 95 1015.4
20181017081648 38 250 0.0 0.0 0.00 0.00 0.00 95 1015.5
20181017080649 38 250 0.0 0.0 0.00 0.00 0.00 95 1015.5
20181017075649 38 250 0.0 0.0 0.00 0.00 0.00 94 1015.6
20181017074650 39 250 0.0 0.0 0.00 0.00 0.00 95 1015.6
20181017073649 39 250 0.0 0.0 0.00 0.00 0.00 95 1015.7
20181017072648 39 250 0.0 0.0 0.00 0.00 0.00 94 1015.7
20181017071649 39 250 0.0 0.0 0.00 0.00 0.00 94 1015.8
20181017070648 39 250 0.0 0.0 0.00 0.00 0.00 94 1015.8
20181017065646 39 250 0.0 0.0 0.00 0.00 0.00 93 1015.9
20181017064649 39 250 0.0 0.0 0.00 0.00 0.00 93 1015.9
20181017063649 40 250 0.0 0.0 0.00 0.00 0.00 93 1015.9
20181017062648 40 250 0.0 0.0 0.00 0.00 0.00 93 1016.0
20181017061648 40 250 0.0 0.0 0.00 0.00 0.00 92 1016.0
20181017060648 41 250 0.0 0.0 0.00 0.00 0.00 92 1016.2
20181017055648 41 250 0.0 0.0 0.00 0.00 0.00 92 1016.3
20181017054648 41 250 0.0 0.0 0.00 0.00 0.00 92 1016.4
20181017053648 41 250 0.0 0.0 0.00 0.00 0.00 92 1016.4
20181017052648 41 250 0.0 0.0 0.00 0.00 0.00 92 1016.6
20181017051648 42 250 0.0 0.0 0.00 0.00 0.00 92 1016.6
20181017050648 42 250 0.0 0.0 0.00 0.00 0.00 92 1016.7
20181017045648 42 250 0.0 0.0 0.00 0.00 0.00 92 1016.7
20181017044645 42 250 0.0 0.0 0.00 0.00 0.00 92 1016.6
20181017043644 42 250 0.0 0.0 0.00 0.00 0.00 91 1016.6
20181017042645 42 250 0.0 0.0 0.00 0.00 0.00 91 1016.9
20181017041645 42 250 0.0 0.0 0.00 0.00 0.00 91 1017.1
20181017040645 43 250 0.0 0.0 0.00 0.00 0.00 90 1017.1
20181017035645 43 250 0.0 0.0 0.00 0.00 0.25 90 1017.1
20181017034637 43 250 0.0 0.0 0.00 0.00 0.25 89 1017.2
20181017033637 44 250 0.0 0.0 0.00 0.00 0.25 89 1017.3
20181017032637 44 250 0.0 0.0 0.00 0.00 0.25 89 1017.2
20181017031637 44 250 0.0 0.0 0.00 0.00 0.25 88 1017.3
20181017030641 44 250 0.0 0.0 0.00 0.00 0.25 89 1017.4
20181017025637 44 250 0.0 0.0 0.00 0.00 0.25 89 1017.6
20181017024637 44 250 0.0 1.0 0.00 0.00 0.25 89 1017.5
20181017023637 44 250 0.0 0.0 0.00 0.00 0.25 89 1017.3
20181017022637 44 250 0.0 0.0 0.00 0.00 0.25 89 1017.3
20181017021636 44 250 0.0 0.0 0.00 0.00 0.25 88 1017.2
20181017020637 44 250 0.0 0.0 0.00 0.00 0.25 88 1017.3
20181017015637 45 250 0.0 0.0 0.00 0.00 0.25 88 1017.3
20181017014637 45 250 0.0 1.0 0.00 0.00 0.25 86 1017.2
20181017013639 45 250 0.0 0.0 0.00 0.00 0.25 86 1017.3
20181017012636 45 250 0.0 0.0 0.00 0.00 0.25 85 1017.3
20181017011637 46 250 0.0 1.0 0.00 0.00 0.25 85 1017.4
20181017010637 46 250 0.0 1.0 0.00 0.00 0.25 85 1017.4
20181017005637 46 250 0.0 1.0 0.00 0.00 0.25 85 1017.3
20181017004636 46 278 0.0 1.0 0.00 0.00 0.25 86 1017.2
20181017003636 45 246 0.0 1.0 0.00 0.00 0.25 87 1017.2
20181017002637 45 246 0.0 0.0 0.00 0.00 0.25 88 1017.3
20181017001637 44 246 0.0 0.0 0.00 0.00 0.25 90 1017.1
20181017000637 44 246 0.0 0.0 0.00 0.00 0.25 90 1016.7
20181016235637 44 246 0.0 0.0 0.00 0.00 0.25 88 1016.9
20181016234636 44 246 0.0 0.0 0.00 0.00 0.25 87 1017.0
20181016233637 45 245 0.0 0.0 0.00 0.00 0.25 87 1017.0
20181016232637 45 245 0.0 0.0 0.00 0.00 0.25 87 1017.1
20181016231636 45 245 0.0 0.0 0.00 0.00 0.25 86 1016.9
20181016230636 46 246 0.0 0.0 0.00 0.00 0.25 86 1016.9
20181016225635 46 245 0.0 0.0 0.00 0.00 0.25 84 1016.6
20181016224636 47 246 0.0 0.0 0.00 0.00 0.25 82 1016.3
20181016223636 47 245 0.0 0.0 0.00 0.00 0.25 81 1016.3
20181016222636 48 245 0.0 0.0 0.00 0.00 0.25 82 1016.1
20181016221635 49 245 0.0 0.0 0.00 0.00 0.25 82 1016.0
20181016220636 49 246 0.0 0.0 0.00 0.00 0.25 77 1016.0
20181016215635 50 246 0.0 0.0 0.00 0.00 0.25 77 1016.0
20181016214636 51 245 0.0 0.0 0.00 0.00 0.25 75 1016.0
20181016213636 51 245 0.0 0.0 0.00 0.00 0.25 73 1015.9
20181016212636 52 246 0.0 0.0 0.00 0.00 0.25 71 1016.0
20181016211636 52 246 0.0 0.0 0.00 0.00 0.25 68 1016.0
20181016210635 53 246 0.0 2.0 0.00 0.00 0.25 65 1015.9
20181016205635 53 245 0.0 1.0 0.00 0.00 0.25 63 1015.9
20181016204636 53 245 0.0 1.0 0.00 0.00 0.25 61 1016.0
20181016203635 54 212 0.0 1.0 0.00 0.00 0.25 59 1016.0
20181016202636 55 206 0.0 3.0 0.00 0.00 0.25 57 1016.1
20181016201635 56 209 1.0 4.0 0.00 0.00 0.25 56 1016.1
20181016200635 56 267 0.0 3.0 0.00 0.00 0.25 56 1016.1
20181016195635 56 229 1.0 4.0 0.00 0.00 0.25 56 1016.0
20181016194637 56 129 1.0 4.0 0.00 0.00 0.25 54 1016.0
20181016193636 56 162 1.0 6.0 0.00 0.00 0.25 55 1016.0
20181016192633 56 198 0.0 4.0 0.00 0.00 0.25 60 1016.1
20181016191633 56 236 1.0 4.0 0.00 0.00 0.25 53 1016.0
20181016190633 56 84 1.0 7.0 0.00 0.00 0.25 54 1016.0
20181016185631 56 262 0.0 6.0 0.00 0.00 0.25 57 1016.1
20181016184632 55 243 1.0 6.0 0.00 0.00 0.25 55 1016.1
20181016183632 55 251 1.0 4.0 0.00 0.00 0.25 55 1016.1
20181016182628 55 228 1.0 6.0 0.00 0.00 0.25 55 1016.4
20181016181628 55 248 1.0 4.0 0.00 0.00 0.25 56 1016.4
20181016180626 55 169 1.0 4.0 0.00 0.00 0.25 57 1016.2
20181016175627 55 197 1.0 5.0 0.00 0.00 0.25 56 1016.3
20181016174627 55 201 1.0 6.0 0.00 0.00 0.25 57 1016.4
20181016173627 54 278 1.0 4.0 0.00 0.00 0.25 58 1016.6
20181016172627 54 204 1.0 6.0 0.00 0.00 0.25 58 1016.6
20181016171627 54 205 1.0 7.0 0.00 0.00 0.25 60 1017.0
20181016170627 53 295 1.0 7.0 0.00 0.00 0.25 59 1017.0
20181016165626 53 253 1.0 5.0 0.00 0.00 0.25 60 1017.0
20181016164624 53 88 1.0 5.0 0.00 0.00 0.25 60 1017.2
20181016163626 53 256 1.0 5.0 0.00 0.00 0.25 58 1017.3
20181016162622 53 170 1.0 7.0 0.00 0.00 0.25 59 1017.6
20181016161623 52 252 1.0 5.0 0.00 0.00 0.25 58 1017.6
20181016160621 52 238 2.0 8.0 0.00 0.00 0.25 58 1017.7
20181016155619 52 353 2.0 7.0 0.00 0.00 0.25 59 1017.7
20181016154619 51 225 1.0 7.0 0.00 0.00 0.25 61 1017.7
20181016153619 51 273 1.0 6.0 0.00 0.00 0.25 61 1017.8
20181016152621 51 133 1.0 3.0 0.00 0.00 0.25 63 1017.9
20181016151619 51 215 1.0 8.0 0.00 0.00 0.25 60 1018.0
20181016150621 51 249 1.0 7.0 0.00 0.00 0.25 62 1018.0
20181016145620 51 207 1.0 5.0 0.00 0.00 0.25 63 1018.0